Location: Majestic Skies Ranch
(34.0000°N, 105.9300°W)
Time: 23:54:23
(UTC-07:00)

ISS - Visible Passes

Search period start: 16 January 2017 00:00
Search period end: 26 January 2017 00:00
Orbit: 400 x 410 km, 51.6° (Epoch: 17 January)

Date Brightness Start Highest point End Pass type
(mag) Time Alt. Az. Time Alt. Az. Time Alt. Az.
16 Jan -2.1 06:29:11 10° NNW 06:32:13 35° NE 06:35:14 10° ESE visible
17 Jan -1.2 05:38:40 16° N 05:39:54 20° NNE 05:42:22 10° E visible
18 Jan 0.0 04:48:46 10° NE 04:48:46 10° NE 04:48:52 10° NE visible
18 Jan -3.4 06:21:27 13° NW 06:24:18 80° SW 06:27:33 10° SE visible
19 Jan -2.6 05:31:37 41° NNE 05:32:06 45° NE 05:35:14 10° ESE visible
20 Jan 0.0 04:41:52 13° E 04:41:52 13° E 04:42:29 10° E visible
20 Jan -2.0 06:14:34 17° W 06:16:12 25° SW 06:18:57 10° S visible
21 Jan -2.5 05:24:53 42° S 05:24:53 42° S 05:27:16 10° SE visible
24 Jan -0.6 19:21:28 10° SSW 19:21:55 13° SSW 19:21:55 13° SSW visible
25 Jan -1.4 18:30:17 10° SSE 18:32:17 15° SE 18:32:24 15° SE visible
